When you browse on this site, cookies collect data to enhance your experience and personalize the content and advertising you see.
Visit our Privacy Policy to learn more. By continuing to use the site, you agree to this use of cookies and data.
  • In Latvia
  • List of Countries
  • For 7 days
  • Water Temperature
  • Weather Map
  • Weather Widgets
  • user-avatar
    Login

    Hourly Weather Zelazna

    Today, 3 June, Wednesday

    Time Temperature Precipitation Wind Pressure Humidity
    00:00 +9°C° 0 mm 2 mps 744 mmHg 89%
    01:00 +9°C° 0 mm 1 mps 743 mmHg 93%
    02:00 +9°C° 0 mm 1 mps 743 mmHg 94%
    03:00 +8°C° 0 mm 2 mps 743 mmHg 95%
    04:00 +7°C° 0 mm 2 mps 742 mmHg 95%
    05:00 +9°C° 0 mm 2 mps 742 mmHg 90%
    06:00 +11°C° 0 mm 3 mps 742 mmHg 84%
    07:00 +12°C° 0 mm 3 mps 742 mmHg 78%
    08:00 +13°C° 0.2 mm 3 mps 742 mmHg 76%
    09:00 +13°C° 0.2 mm 3 mps 742 mmHg 74%
    10:00 +13°C° 0.2 mm 4 mps 742 mmHg 72%
    11:00 +14°C° 0.2 mm 4 mps 742 mmHg 71%
    12:00 +14°C° 0.2 mm 4 mps 742 mmHg 70%
    13:00 +15°C° 0.2 mm 4 mps 741 mmHg 69%
    14:00 +15°C° 0.2 mm 4 mps 741 mmHg 68%
    15:00 +17°C° 0.2 mm 4 mps 740 mmHg 67%
    16:00 +17°C° 0.2 mm 4 mps 740 mmHg 66%
    17:00 +16°C° 0.3 mm 3 mps 740 mmHg 72%
    18:00 +14°C° 0.3 mm 3 mps 740 mmHg 77%
    19:00 +14°C° 0.3 mm 2 mps 740 mmHg 83%
    20:00 +13°C° 0 mm 2 mps 740 mmHg 85%
    21:00 +12°C° 0 mm 2 mps 740 mmHg 88%
    22:00 +10°C° 0 mm 1 mps 740 mmHg 90%
    23:00 +10°C° 0 mm 1 mps 740 mmHg 90%

    Tomorrow, 4 June, Thursday

    Time Temperature Precipitation Wind Pressure Humidity
    00:00 +10°C° 0 mm 1 mps 740 mmHg 91%
    01:00 +9°C° 0 mm 1 mps 740 mmHg 92%
    02:00 +9°C° 0 mm 1 mps 739 mmHg 92%
    03:00 +9°C° 0 mm 1 mps 739 mmHg 93%
    04:00 +8°C° 0 mm 1 mps 739 mmHg 93%
    05:00 +10°C° 0 mm 1 mps 739 mmHg 88%
    06:00 +12°C° 0 mm 1 mps 739 mmHg 84%
    07:00 +14°C° 0 mm 1 mps 738 mmHg 79%
    08:00 +15°C° 0 mm 1 mps 738 mmHg 72%
    09:00 +18°C° 0 mm 1 mps 738 mmHg 66%
    10:00 +17°C° 0 mm 0 mps 738 mmHg 59%
    11:00 +20°C° 0 mm 1 mps 738 mmHg 57%
    12:00 +20°C° 0 mm 1 mps 737 mmHg 54%
    13:00 +21°C° 0 mm 1 mps 737 mmHg 52%
    14:00 +21°C° 0 mm 1 mps 737 mmHg 51%
    15:00 +21°C° 0 mm 1 mps 736 mmHg 51%
    16:00 +21°C° 0 mm 1 mps 736 mmHg 50%
    17:00 +19°C° 0 mm 2 mps 736 mmHg 57%
    18:00 +18°C° 0 mm 2 mps 736 mmHg 63%
    19:00 +17°C° 0 mm 3 mps 735 mmHg 69%
    20:00 +16°C° 0 mm 3 mps 735 mmHg 70%
    21:00 +14°C° 0 mm 3 mps 735 mmHg 70%
    22:00 +14°C° 0 mm 4 mps 735 mmHg 70%
    23:00 +13°C° 0 mm 4 mps 734 mmHg 71%

    Day after tomorrow, 5 June, Friday

    Time Temperature Precipitation Wind Pressure Humidity
    00:00 +13°C° 0 mm 4 mps 734 mmHg 72%
    01:00 +13°C° 0 mm 5 mps 734 mmHg 73%
    02:00 +13°C° 0 mm 5 mps 733 mmHg 77%
    03:00 +12°C° 0 mm 5 mps 732 mmHg 82%
    04:00 +12°C° 0 mm 5 mps 732 mmHg 87%
    05:00 +13°C° 0 mm 4 mps 732 mmHg 86%
    06:00 +15°C° 0 mm 4 mps 732 mmHg 85%
    07:00 +17°C° 0 mm 4 mps 732 mmHg 84%
    08:00 +17°C° 0.1 mm 5 mps 732 mmHg 81%
    09:00 +19°C° 0.1 mm 5 mps 732 mmHg 79%
    10:00 +20°C° 0.1 mm 6 mps 733 mmHg 77%
    11:00 +18°C° 0.2 mm 7 mps 733 mmHg 78%
    12:00 +17°C° 0.2 mm 7 mps 734 mmHg 80%
    13:00 +16°C° 0.2 mm 8 mps 734 mmHg 81%
    14:00 +15°C° 0 mm 7 mps 735 mmHg 80%
    15:00 +15°C° 0 mm 5 mps 735 mmHg 80%
    16:00 +15°C° 0 mm 4 mps 736 mmHg 79%
    17:00 +16°C° 0 mm 3 mps 736 mmHg 81%
    18:00 +15°C° 0 mm 2 mps 736 mmHg 83%
    19:00 +15°C° 0 mm 1 mps 737 mmHg 84%
    20:00 +14°C° 0.9 mm 1 mps 737 mmHg 88%
    21:00 +14°C° 0.9 mm 2 mps 737 mmHg 92%
    22:00 +13°C° 0.9 mm 2 mps 738 mmHg 95%
    23:00 +12°C° 0 mm 3 mps 738 mmHg 95%

    6 June, Saturday

    Time Temperature Precipitation Wind Pressure Humidity
    00:00 +11°C° 0 mm 3 mps 738 mmHg 95%
    01:00 +11°C° 0 mm 4 mps 738 mmHg 95%
    02:00 +11°C° 0 mm 4 mps 738 mmHg 94%
    03:00 +10°C° 0 mm 5 mps 739 mmHg 94%
    04:00 +9°C° 0 mm 5 mps 739 mmHg 93%
    05:00 +11°C° 0 mm 6 mps 739 mmHg 88%
    06:00 +13°C° 0 mm 6 mps 740 mmHg 83%
    07:00 +14°C° 0 mm 7 mps 740 mmHg 78%
    08:00 +15°C° 0 mm 7 mps 740 mmHg 73%
    09:00 +17°C° 0 mm 7 mps 741 mmHg 67%
    10:00 +18°C° 0 mm 8 mps 741 mmHg 61%
    11:00 +18°C° 0.2 mm 8 mps 741 mmHg 64%
    12:00 +18°C° 0.2 mm 8 mps 741 mmHg 66%
    13:00 +18°C° 0.2 mm 9 mps 741 mmHg 69%
    14:00 +18°C° 0 mm 8 mps 742 mmHg 67%
    15:00 +20°C° 0 mm 8 mps 742 mmHg 65%
    16:00 +21°C° 0 mm 7 mps 742 mmHg 63%
    17:00 +19°C° 0 mm 6 mps 742 mmHg 67%
    18:00 +17°C° 0 mm 5 mps 743 mmHg 72%
    19:00 +17°C° 0 mm 4 mps 743 mmHg 76%
    20:00 +16°C° 0 mm 3 mps 743 mmHg 78%
    21:00 +14°C° 0 mm 3 mps 744 mmHg 79%
    22:00 +14°C° 0 mm 3 mps 744 mmHg 81%
    23:00 +14°C° 0 mm 3 mps 744 mmHg 80%

    7 June, Sunday

    Time Temperature Precipitation Wind Pressure Humidity
    00:00 +14°C° 0 mm 3 mps 744 mmHg 78%
    01:00 +15°C° 0 mm 2 mps 744 mmHg 77%
    02:00 +15°C° 0.2 mm 2 mps 745 mmHg 80%
    03:00 +15°C° 0.2 mm 1 mps 745 mmHg 83%
    04:00 +15°C° 0.2 mm 1 mps 745 mmHg 85%
    05:00 +16°C° 0.1 mm 1 mps 745 mmHg 84%
    06:00 +17°C° 0.1 mm 2 mps 745 mmHg 82%
    07:00 +18°C° 0.1 mm 2 mps 745 mmHg 81%
    08:00 +20°C° 0.3 mm 2 mps 745 mmHg 76%
    09:00 +21°C° 0.3 mm 2 mps 745 mmHg 72%
    10:00 +23°C° 0.3 mm 2 mps 745 mmHg 67%
    11:00 +24°C° 0.5 mm 3 mps 745 mmHg 65%
    12:00 +25°C° 0.5 mm 3 mps 744 mmHg 62%
    13:00 +25°C° 0.5 mm 3 mps 744 mmHg 59%
    14:00 +25°C° 0.2 mm 3 mps 743 mmHg 60%
    15:00 +25°C° 0.2 mm 2 mps 743 mmHg 61%
    16:00 +25°C° 0.2 mm 2 mps 743 mmHg 62%
    17:00 +24°C° 0.2 mm 2 mps 742 mmHg 69%
    18:00 +23°C° 0.2 mm 2 mps 742 mmHg 76%
    19:00 +20°C° 0.2 mm 2 mps 742 mmHg 83%
    20:00 +19°C° 0.1 mm 2 mps 742 mmHg 86%
    21:00 +19°C° 0.1 mm 1 mps 742 mmHg 89%
    22:00 +18°C° 0.1 mm 1 mps 742 mmHg 91%
    23:00 +18°C° 0.2 mm 1 mps 742 mmHg 93%

    8 June, Monday

    Time Temperature Precipitation Wind Pressure Humidity
    00:00 +17°C° 0.2 mm 2 mps 742 mmHg 94%
    01:00 +16°C° 0.2 mm 2 mps 742 mmHg 95%
    02:00 +16°C° 0 mm 2 mps 743 mmHg 96%
    03:00 +16°C° 0 mm 3 mps 743 mmHg 96%
    04:00 +14°C° 0 mm 3 mps 743 mmHg 96%
    05:00 +16°C° 0 mm 3 mps 743 mmHg 94%
    06:00 +17°C° 0 mm 3 mps 743 mmHg 91%
    07:00 +18°C° 0 mm 3 mps 744 mmHg 88%
    08:00 +19°C° 0 mm 3 mps 744 mmHg 86%
    09:00 +19°C° 0 mm 4 mps 744 mmHg 83%
    10:00 +20°C° 0 mm 4 mps 745 mmHg 81%
    11:00 +20°C° 0 mm 4 mps 745 mmHg 80%
    12:00 +20°C° 0 mm 4 mps 745 mmHg 80%
    13:00 +20°C° 0 mm 4 mps 745 mmHg 79%
    14:00 +20°C° 0 mm 5 mps 745 mmHg 80%
    15:00 +19°C° 0 mm 5 mps 745 mmHg 81%
    16:00 +19°C° 0 mm 5 mps 745 mmHg 81%
    17:00 +17°C° 0 mm 5 mps 745 mmHg 82%
    18:00 +16°C° 0 mm 5 mps 745 mmHg 82%
    19:00 +15°C° 0 mm 4 mps 746 mmHg 83%
    20:00 +14°C° 0 mm 4 mps 746 mmHg 84%
    21:00 +14°C° 0 mm 4 mps 746 mmHg 86%
    22:00 +13°C° 0 mm 3 mps 747 mmHg 88%
    23:00 +13°C° 0 mm 3 mps 747 mmHg 89%
    Show more